Somerville, NJ

5:34 PM EDT on May 24, 2018 (GMT -0400)
Somerset

Weather History for KSMQ - December, 2012

Change the Weather History Date:

Wednesday, December 12, 2012

  Actual Average Record
Temperature  
Mean Temperature 36 °F -  
Max Temperature 44 °F 41 °F 69 °F (1931)
Min Temperature 28 °F 25 °F 2 °F (1988)
Degree Days  
Heating Degree Days 29    
Moisture  
Dew Point 27 °F    
Average Humidity 78    
Maximum Humidity 96    
Minimum Humidity 45    
Precipitation  
Precipitation 0.01 in - - ()
Sea Level Pressure  
Sea Level Pressure 30.36 in    
Wind  
Wind Speed 1 mph (WNW)    
Max Wind Speed 7 mph    
Max Gust Speed -    
Visibility 10 miles    
Events      
Averages and records for this station are not official NWS values.
T = Trace of Precipitation, MM = Missing Value Source: NWS Daily Summary

Daily Weather History Graph

Daily Weather History Graph

Search for Another Location

Airport or City:

Astronomy

Dec. 12, 2012 Rise Set
Actual Time 7:13 AM EST 4:31 PM EST
Civil Twilight 6:42 AM EST 5:02 PM EST
Nautical Twilight 6:08 AM EST 5:37 PM EST
Astronomical Twilight 5:35 AM EST 6:10 PM EST
Moon 6:14 AM EST (12/12) 4:06 PM EST (12/12)
Length of Visible Light 10h 20m
Length of Day
9h 18m
Waning Crescent, 1% of the Moon is Illuminated
Dec 12
Waning Crescent
Dec 13
New
Dec 20
First Quarter
Dec 28
Full
Jan 4
Last Quarter

Hourly Weather History & Observations

Time (EST) Temp. Windchill Dew Point Humidity Pressure Visibility Wind Dir Wind Speed Gust Speed Precip Events Conditions
12:53 AM 30.9 °F - 28.9 °F 92% 30.20 in 10.0 mi Calm Calm - N/A   Clear
1:53 AM 30.0 °F - 28.0 °F 92% 30.23 in 10.0 mi Calm Calm - N/A   Clear
2:53 AM 28.9 °F - 28.0 °F 96% 30.25 in 10.0 mi Calm Calm - N/A   Clear
3:53 AM 28.9 °F - 27.0 °F 92% 30.27 in 10.0 mi Calm Calm - N/A   Clear
4:53 AM 28.9 °F - 27.0 °F 92% 30.30 in 10.0 mi Calm Calm - N/A   Clear
5:53 AM 28.0 °F - 27.0 °F 96% 30.32 in 10.0 mi Calm Calm - N/A   Clear
6:53 AM 28.9 °F - 27.0 °F 92% 30.33 in 10.0 mi Calm Calm - N/A   Clear
7:53 AM 28.9 °F 25.2 °F 27.0 °F 92% 30.36 in 10.0 mi NNW 3.5 mph - N/A   Clear
8:53 AM 34.0 °F - 30.0 °F 85% 30.37 in 10.0 mi Calm Calm - 0.01 in   Clear
9:53 AM 39.0 °F - 30.9 °F 73% 30.38 in 10.0 mi Calm Calm - N/A   Clear
10:53 AM 41.0 °F 39.0 °F 28.0 °F 60% 30.39 in 10.0 mi West 3.5 mph - N/A   Clear
11:53 AM 42.1 °F 39.2 °F 26.1 °F 53% 30.38 in 10.0 mi NW 4.6 mph - N/A   Partly Cloudy
12:53 PM 43.0 °F 38.8 °F 23.0 °F 45% 30.36 in 10.0 mi WNW 6.9 mph - N/A   Clear
1:53 PM 44.1 °F 42.5 °F 24.1 °F 45% 30.36 in 10.0 mi Variable 3.5 mph - N/A   Clear
2:53 PM 43.0 °F 41.3 °F 24.1 °F 47% 30.38 in 10.0 mi West 3.5 mph - N/A   Clear
3:53 PM 41.0 °F - 25.0 °F 53% 30.38 in 10.0 mi Calm Calm - N/A   Clear
4:53 PM 37.9 °F - 28.0 °F 68% 30.39 in 10.0 mi Calm Calm - N/A   Clear
5:53 PM 35.1 °F - 28.0 °F 76% 30.40 in 10.0 mi Calm Calm - N/A   Clear
6:53 PM 34.0 °F - 28.0 °F 79% 30.39 in 10.0 mi Calm Calm - N/A   Clear
7:53 PM 32.0 °F - 28.9 °F 88% 30.40 in 10.0 mi Calm Calm - N/A   Clear
8:53 PM 30.9 °F - 28.0 °F 89% 30.43 in 10.0 mi Calm Calm - N/A   Clear
9:53 PM 30.9 °F - 28.0 °F 89% 30.43 in 10.0 mi Calm Calm - N/A   Clear
10:53 PM 30.0 °F 26.5 °F 28.0 °F 92% 30.43 in 10.0 mi NW 3.5 mph - N/A   Clear
11:53 PM 30.0 °F - 28.0 °F 92% 30.43 in 10.0 mi Calm Calm - N/A   Clear